Location: New Frontier Mobile Home Park
(32.8448°N, 116.9675°W)
Time: 23:12:37
(UTC+00:00)

Cosmos 1378 Rocket - Pass Details

Date: 14 July 2020
Orbit: 602 x 626 km, 82.5° (Epoch: 05 August)

Event Time Altitude Azimuth Distance (km) Brightness Sun altitude
Rises 10:25:16 0° 360° (N) 2,897 7.8 -24.7°
Reaches altitude 10° 10:27:33 10° 5° (N) 1,991 6.9 -24.4°
Maximum altitude 10:31:51 50° 82° (E) 796 4.3 -23.8°
Enters shadow 10:33:31 32° 137° (SE) 1,068 4.6 -23.6°
